sat.trackr.live / text

‹ back to catalog

STARLINK-37386

NORAD 68898 · 2026-097D

PAYLOAD ACTIVE UNKNOWN

§ Identity

Operator
Country
US
Launch date
2026-04-30
Launch site
AFWTR
Launch vehicle
Mass (kg)
RCS (m²)

Purposes: comms

External: N2YO · Heavens-Above · Gunter

§ Orbital elements

Epoch: 2026-05-25T01:42:55.734624Z

Period
92.95 min
Inclination
97.2854°
Eccentricity
0.0001634
Mean motion
15.49211643 rev/d
Perigee alt
417.9 km
Apogee alt
420.1 km
Semi-major
6,797.2 km
B*
5.2956e-4
RAAN
340.7639°
Arg perigee
82.4729°
Mean anomaly
277.6707°
Rev number
393

§ Raw data

STARLINK-373861 68898U 26097D   26145.07147841  .00028839  00000+0  52956-3 0  99922 68898  97.2854 340.7639 0001634  82.4729 277.6707 15.49211643  3931

JSON: /api/v1/satellites/68898 · /tle

For live sub-satellite position, see the globe view (requires WebGL).

§ Visibility from observer

Set your observer location to see the next 7 days of passes ≥ 10°. The values pass through the URL so the page stays shareable.

No JS? Fill the form by hand. The geolocation button needs JavaScript.